Regional Weather Roundup
Issued by NWS

Home | Current Version | Previous Version | Text Only | Print | Product List | Glossary Off
Versions: 1 2 3 4 5 6 7 8 9 10 11 12 13 14 15 16 17 18 19 20 21 22 23 24 25 26 27 28 29 30 31 32 33 34 35 36 37 38 39 40 41 42 43 44 45 46 47 48 49 50

000
ASUS44 KMEG 280110
RWRTN
TENNESSEE HOURLY STATE WEATHER ROUNDUP
NATIONAL WEATHER SERVICE MEMPHIS TN
800 PM CDT WED AUG 27 2014

TNZ002-004-019-021-049-052-054-088>092-280200-
WEST TENNESSEE

CITY           SKY/WX    TMP DP  RH WIND       PRES   REMARKS
MEMPHIS INTL   PTCLDY    87  64  46 E6        30.01R
NWS MEMPHIS      N/A     82 N/A N/A MISG        N/A
JACKSON        CLEAR     78  73  84 CALM      30.03R
DYERSBURG      CLEAR     81  66  61 CALM      30.03R
UNION CITY     CLEAR     81  75  83 CALM      30.02R
PARIS          CLEAR     75  72  88 CALM      30.05R
HUNTINGDON     CLEAR     78  72  82 CALM      30.04
LEXINGTON      CLEAR     79  72  78 CALM      30.03R
SAVANNAH       CLEAR     77  73  88 CALM      30.04R
$$

TNZ008-025-027-028-033-062-065-066-280200-
NORTH MIDDLE TENNESSEE

CITY           SKY/WX    TMP DP  RH WIND       PRES   REMARKS
NASHVILLE      PTCLDY    83  69  62 E3        30.05R
DICKSON        CLEAR     79  73  83 CALM      30.05R
PORTLAND       PTCLDY    77  72  83 CALM      30.05
CLARKSVILLE    MOCLDY    82  72  71 CALM      30.04R
LEBANON        CLEAR     81  71  71 CALM      30.03R
SMYRNA         CLEAR     80  71  74 CALM      30.05R
MURFREESBORO   CLEAR     83  68  60 CALM      30.03R
COOKEVILLE     CLEAR     75  72  88 CALM      30.07R
LIVINGSTON     CLEAR     77  68  73 CALM      30.09
GALLATIN       CLEAR     82  74  77 CALM      30.05R
CROSSVILLE     CLEAR     72  65  78 CALM      30.12R
$$

TNZ061-075-076-078-094-096-097-280200-
SOUTH MIDDLE TENNESSEE

CITY           SKY/WX    TMP DP  RH WIND       PRES   REMARKS
LEWISBURG      CLEAR     76  69  79 CALM      30.04R
FAYETTEVILLE   CLEAR     79  66  65 CALM      30.05R
TULLAHOMA      CLEAR     75  64  69 CALM      30.07R
WINCHESTER     CLEAR     75  68  78 CALM      30.05S
MCMINNVILLE    CLEAR     75  73  94 CALM      30.07R
COLUMBIA       PTCLDY    81  75  83 CALM      30.03R
SHELBYVILLE    CLEAR     75  70  83 CALM      30.06R
$$

TNZ017-018-042-046-047-280200-
NORTHEAST TENNESSEE

CITY           SKY/WX    TMP DP  RH WIND       PRES   REMARKS
TRI CITIES     CLEAR     71  59  65 CALM      30.08R
ELIZABETHTON   CLEAR     64  61  88 CALM      30.10R
$$

TNZ012-013-036-069-073-074-280200-
CENTRAL EAST TENNESSEE

CITY           SKY/WX    TMP DP  RH WIND       PRES   REMARKS
KNOXVILLE      PTCLDY    78  62  57 CALM      30.04R
OAK RIDGE      CLEAR     76  66  71 CALM      30.07R
GATLINBURG     CLEAR     73  63  68 CALM      30.06R
MORRISTOWN     CLEAR     75  66  73 CALM      30.09R
$$

TNZ083-085-099-280200-
SOUTHEAST TENNESSEE

CITY           SKY/WX    TMP DP  RH WIND       PRES   REMARKS
CHATTANOOGA    PTCLDY    83  60  45 NE3       30.04R
$$

SKY/WX REPORTED AS FAIR MEANS FEW OR NO CLOUDS BELOW
12 THOUSAND FEET.




USA.gov is the U.S. government's official web portal to all federal, state and local government web resources and services.